Tracking 19212 objects as of 16-Jul-2018
HD Live streaming from Space Station
objects crossing your sky now

FENGYUN 1C DEB

Track FENGYUN 1C DEB now!
10-day predictions


NORAD ID: 29996
Int'l Code: 1999-025LW
Perigee: 811.6 km
Apogee: 1,028.2 km
Inclination: 99.2 °
Period: 103.3 minutes
Semi major axis: 7290 km
RCS: 0.0514 m2 (small)
Launch date: May 10, 1999
Source: People's Republic of China (PRC)
Launch site: Taiyaun Space Center, China (TSC)

Note: This is SATELLITE DEBRIS
aabbcc
Your satellite tracking list
Your tracking list is empty




NASA's NSSDC Master Catalog

Two Line Element Set (TLE):
1 29996U 99025LW  18196.32863466  .00000469  00000-0  35245-3 0  9994
2 29996  99.2406 154.0976 0148553 285.8774 233.7500 13.94543762582926
Source of the keplerian elements: AFSPC